TimeAKDT,TemperatureF,Dew PointF,Humidity,Sea Level PressureIn,VisibilityMPH,Wind Direction,Wind SpeedMPH,Gust SpeedMPH,PrecipitationIn,Events,Conditions,WindDirDegrees,DateUTC
12:02 AM,48.2,46.4,93,29.41,4.0,ESE,13.8,27.6,0.01,Rain,Light Rain,120,2012-10-12 08:02:00
12:53 AM,48.9,46.9,93,29.40,4.0,ESE,12.7,21.9,0.06,Rain,Light Rain,120,2012-10-12 08:53:00
1:16 AM,48.2,46.4,93,29.39,5.0,SE,16.1,24.2,0.04,Rain,Light Rain,130,2012-10-12 09:16:00
1:26 AM,48.2,46.4,93,29.38,5.0,SE,15.0,23.0,0.06,Rain,Light Rain,130,2012-10-12 09:26:00
1:37 AM,50.0,46.4,87,29.38,3.0,ESE,16.1,26.5,0.08,Rain,Light Rain,120,2012-10-12 09:37:00
1:45 AM,48.2,48.2,100,29.37,2.5,ESE,16.1,24.2,0.09,Rain,Light Rain,120,2012-10-12 09:45:00
1:53 AM,48.9,48.0,97,29.37,2.5,ESE,16.1,25.3,0.10,Rain,Light Rain,120,2012-10-12 09:53:00
1:59 AM,48.2,48.2,100,29.37,3.0,ESE,17.3,26.5,0.01,Rain,Light Rain,120,2012-10-12 09:59:00
2:19 AM,50.0,48.2,94,29.37,2.5,ESE,18.4,27.6,0.02,Rain,Light Rain,120,2012-10-12 10:19:00
2:53 AM,50.0,48.0,93,29.36,2.5,ESE,16.1,28.8,0.06,Rain,Light Rain,120,2012-10-12 10:53:00
3:53 AM,50.0,48.0,93,29.35,2.5,ESE,13.8,24.2,0.20,Rain,Rain,120,2012-10-12 11:53:00
4:07 AM,50.0,48.2,94,29.34,3.0,ESE,12.7,23.0,0.04,Rain,Light Rain,120,2012-10-12 12:07:00
4:30 AM,50.0,48.2,94,29.34,2.0,SE,16.1,21.9,0.10,Rain,Rain,130,2012-10-12 12:30:00
4:53 AM,50.0,48.0,93,29.34,3.0,ESE,13.8,20.7,0.15,Rain,Rain,120,2012-10-12 12:53:00
5:26 AM,50.0,48.2,94,29.33,2.5,SE,11.5,21.9,0.06,Rain,Rain,130,2012-10-12 13:26:00
5:38 AM,50.0,48.2,94,29.33,3.0,ESE,13.8,19.6,0.12,Rain,Heavy Rain,120,2012-10-12 13:38:00
5:53 AM,50.0,48.0,93,29.33,4.0,ESE,13.8,21.9,0.15,Rain,Rain,120,2012-10-12 13:53:00
6:30 AM,50.0,48.2,94,29.33,2.5,ESE,10.4,18.4,0.06,Rain,Light Rain,110,2012-10-12 14:30:00
6:41 AM,50.0,48.2,94,29.33,3.0,SE,11.5,18.4,0.08,Rain,Light Rain,130,2012-10-12 14:41:00
6:53 AM,50.0,48.9,96,29.34,2.5,SE,13.8,-,0.12,Rain,Rain,130,2012-10-12 14:53:00
7:11 AM,50.0,48.2,94,29.34,4.0,SE,10.4,-,0.04,Rain,Rain,130,2012-10-12 15:11:00
7:53 AM,51.1,51.1,100,29.34,5.0,SE,12.7,20.7,0.15,Rain,Light Rain,140,2012-10-12 15:53:00
8:10 AM,51.8,51.8,100,29.34,4.0,SSE,10.4,-,0.02,Rain,Rain,150,2012-10-12 16:10:00
8:53 AM,53.1,52.0,96,29.36,5.0,South,8.1,23.0,0.11,Rain,Light Rain,190,2012-10-12 16:53:00
9:53 AM,53.1,52.0,96,29.39,4.0,South,6.9,-,0.04,Rain,Light Rain,190,2012-10-12 17:53:00
10:53 AM,53.1,52.0,96,29.42,7.0,Variable,5.8,17.3,0.00,Rain,Light Rain,0,2012-10-12 18:53:00
11:53 AM,54.0,52.0,93,29.44,10.0,SSW,8.1,-,0.00,,Overcast,200,2012-10-12 19:53:00
12:15 PM,53.6,51.8,94,29.45,10.0,SSW,6.9,-,N/A,,Overcast,200,2012-10-12 20:15:00
12:44 PM,53.6,51.8,94,29.46,6.0,South,6.9,-,0.00,Rain,Light Rain,170,2012-10-12 20:44:00
12:51 PM,51.8,51.8,100,29.46,5.0,South,5.8,-,0.00,Rain,Light Rain,190,2012-10-12 20:51:00
12:53 PM,53.1,51.1,93,29.46,7.0,South,6.9,-,0.00,,Overcast,190,2012-10-12 20:53:00
1:14 PM,53.6,51.8,94,29.46,10.0,Variable,4.6,-,N/A,,Overcast,0,2012-10-12 21:14:00
1:53 PM,53.1,51.1,93,29.47,10.0,Variable,4.6,-,0.00,Rain,Light Rain,0,2012-10-12 21:53:00
2:08 PM,51.8,51.8,100,29.47,4.0,SSE,4.6,-,0.01,Rain,Light Rain,160,2012-10-12 22:08:00
2:19 PM,51.8,51.8,100,29.47,3.0,SSE,8.1,-,0.02,Rain,Light Rain,150,2012-10-12 22:19:00
2:28 PM,51.8,51.8,100,29.47,7.0,SSE,8.1,-,0.03,Rain,Light Rain,150,2012-10-12 22:28:00
2:53 PM,52.0,51.1,97,29.47,6.0,SSE,8.1,-,0.03,Rain,Light Rain,160,2012-10-12 22:53:00
3:20 PM,51.8,51.8,100,29.47,8.0,SE,6.9,-,0.01,,Overcast,140,2012-10-12 23:20:00
3:38 PM,51.8,51.8,100,29.47,10.0,SSE,10.4,16.1,0.01,,Overcast,160,2012-10-12 23:38:00
3:53 PM,52.0,51.1,97,29.47,10.0,SSE,9.2,-,0.01,,Overcast,150,2012-10-12 23:53:00
4:29 PM,51.8,50.0,94,29.46,10.0,SSE,10.4,-,0.00,Rain,Light Rain,150,2012-10-13 00:29:00
4:39 PM,51.8,50.0,94,29.46,10.0,SSE,10.4,18.4,0.00,,Overcast,150,2012-10-13 00:39:00
4:53 PM,52.0,50.0,93,29.47,10.0,SSE,10.4,18.4,0.00,,Overcast,150,2012-10-13 00:53:00
5:13 PM,51.8,50.0,94,29.46,10.0,SSE,10.4,19.6,N/A,,Overcast,150,2012-10-13 01:13:00
5:41 PM,51.8,50.0,94,29.46,10.0,SSE,10.4,19.6,0.00,Rain,Light Rain,150,2012-10-13 01:41:00
5:53 PM,52.0,50.0,93,29.46,10.0,SSE,11.5,23.0,0.00,Rain,Light Rain,150,2012-10-13 01:53:00
6:53 PM,52.0,51.1,97,29.45,6.0,SSE,11.5,21.9,0.03,Rain,Light Rain,150,2012-10-13 02:53:00
7:53 PM,52.0,51.1,97,29.44,10.0,SE,12.7,25.3,0.08,Rain,Light Rain,140,2012-10-13 03:53:00
9:53 PM,52.0,52.0,100,29.45,7.0,SSE,10.4,17.3,0.01,Rain,Light Rain,160,2012-10-13 05:53:00
10:34 PM,53.6,51.8,94,29.45,7.0,Variable,6.9,16.1,0.04,Rain,Rain,0,2012-10-13 06:34:00
10:53 PM,53.1,52.0,96,29.46,7.0,South,8.1,16.1,0.08,Rain,Light Rain,180,2012-10-13 06:53:00
11:24 PM,51.8,50.0,94,29.48,10.0,WSW,8.1,-,0.00,Rain,Light Rain,250,2012-10-13 07:24:00
11:35 PM,51.8,48.2,88,29.48,10.0,SW,8.1,-,0.00,,Overcast,230,2012-10-13 07:35:00
11:53 PM,51.1,48.0,89,29.50,10.0,SW,6.9,-,0.00,,Scattered Clouds,230,2012-10-13 07:53:00